Showing default

OPS 0100 (TRANSIT 15), 2754

Orbit data source: Space-Track

OPS 0100 (TRANSIT 15), 2754 is a payload satellite owned by USN NAVAIR (US) in LEO that was launched on Fri, 14 Apr 1967 UTC via an SCOUT A launch vehicle from the Air Force Western Test Range (AFWTR). Payload-class satellites include a variety of spacecraft equipped with specific instruments for various scientific and technological missions. These include communications satellites like Starlink; space stations such as the ISS; scientific satellites like the Hubble; Earth observation satellites from companies like Planet Labs, Umbra, and HawkEye 360; GPS; miniature CubeSats for education and research; and military/defense satellites.

Loading next visibility...
Identifier
2754, 1967-034A
Orbit
LEO
Country
Flag of USUS
Related business
Manufacturer
APL
Mission
Defense Navigation
Bus & Motor
TRANSIT 5, Unknown motor
Mass
~50 kg wet, ~50 kg dry
Launch date (UTC)
1967-04-14 (58 years ago)
Launch vehicle
SCOUT A
Launch site
Air Force Western Test Range (AFWTR)
Object type
Payload
Rocket body
Debris
Shape & HBR
Oct Cyl + 4 Pan + 1 Rod, Unknown HBR
Radar Cross Section
7.565 m², Large (>1 m²)

Expand to show TLE details & history
Last TLE update: 10 hours ago

TLE from 10 hours ago
0 OPS 0100 (TRANSIT 15)
1 02754U 67034A   25258.83007250  .00000129  00000-0  16868-3 0  9999
2 02754  90.2263  28.7348 0018266 224.7258 247.8737 13.57324440888899
Epoch: 2025-09-15T19:55Z
TLE epoch observation values (Epoch: 2025-09-15T19:55:18.263Z)
Latitude
67.66937°
Longitude
-84.57228°
Altitude
1,062.359 km
Speed
7.324 km/s
True Right ascension
13h 57m 07s
True Declination
67° 33' 11"
Sunlit
Object was in daylight at epoch
Visualization orbit readout
Latitude
Unknown
Longitude
Unknown
Altitude
Unknown
Speed
Unknown
Apparent Right ascension
Unknown
Apparent Declination
Unknown
Sunlit
N/A
Visualization observer readout
Local Sidereal Time
23:04:30
Azimuth
Unknown
Elevation
Unknown
Doppler factor
Unknown
Orbital elements
Apogee altitude
1,056.025 km
Perigee altitude
1,028.916 km
Semi-major axis
7,420.608 km
Eccentricity
0.00183
Inclination
90.2263°
RAAN
28.7348°
Arg. of periapsis
224.7258°
True anomaly
247.67997°
Mean anomaly
247.8737°
Eccentric anomaly
247.77682°
Mean motion
3.39535 °/min
Orbital period
106.03 mins
BSTAR
0.00016868
Loading maneuver chart data...
Computing Atmospheric mass density...
Loading historical data...
Loading historical data...
Loading historical data...
Loading historical data...
Loading historical data...
Loading historical data...
Loading historical data...

Documentation

Showing up to 5 results
|